Location: Goettingen
(51.5300°N, 9.9433°E)
Time: 19:57:30
(UTC+01:00)

ISS - Pass Details

Date: 09 December 2017
Orbit: 402 x 407 km, 51.6° (Epoch: 11 December)

Event Time Altitude Azimuth Distance (km) Brightness Sun altitude
Rises 18:17:25 0° 280° (W) 2,332 1.2 -18.4°
Reaches altitude 10° 18:19:30 10° 279° (W) 1,469 0.0 -18.7°
Maximum altitude 18:22:47 77° 194° (SSW) 422 -3.8 -19.2°
Enters shadow 18:23:03 70° 143° (SE) 437 -3.9 -19.3°
